TimeCDT,TemperatureF,Dew PointF,Humidity,Sea Level PressureIn,VisibilityMPH,Wind Direction,Wind SpeedMPH,Gust SpeedMPH,PrecipitationIn,Events,Conditions,WindDirDegrees,DateUTC
12:15 AM,51.8,46.4,82,30.16,10.0,ESE,11.5,19.6,N/A,,Overcast,120,2013-05-26 05:15:00
12:35 AM,51.8,46.4,82,30.17,10.0,SE,13.8,19.6,N/A,,Overcast,130,2013-05-26 05:35:00
12:55 AM,51.8,46.4,82,30.17,10.0,ESE,12.7,19.6,N/A,,Overcast,120,2013-05-26 05:55:00
1:15 AM,51.8,46.4,82,30.16,10.0,SE,17.3,23.0,N/A,,Overcast,130,2013-05-26 06:15:00
1:35 AM,51.8,46.4,82,30.14,10.0,ESE,13.8,20.7,N/A,,Overcast,120,2013-05-26 06:35:00
1:55 AM,51.8,46.4,82,30.14,10.0,SE,15.0,24.2,N/A,,Overcast,130,2013-05-26 06:55:00
2:15 AM,51.8,46.4,82,30.15,10.0,ESE,16.1,21.9,N/A,,Overcast,120,2013-05-26 07:15:00
2:35 AM,51.8,46.4,82,30.15,10.0,SE,13.8,23.0,N/A,,Overcast,130,2013-05-26 07:35:00
2:55 AM,51.8,46.4,82,30.11,10.0,ESE,16.1,24.2,N/A,,Overcast,110,2013-05-26 07:55:00
3:15 AM,51.8,46.4,82,30.13,10.0,ESE,16.1,20.7,N/A,,Overcast,110,2013-05-26 08:15:00
3:35 AM,51.8,46.4,82,30.12,10.0,ESE,15.0,21.9,N/A,Rain,Light Rain,120,2013-05-26 08:35:00
3:55 AM,51.8,46.4,82,30.12,7.0,ESE,15.0,18.4,0.05,Rain,Light Rain,120,2013-05-26 08:55:00
4:15 AM,51.8,46.4,82,30.12,4.0,ESE,16.1,20.7,0.08,Rain,Heavy Rain,120,2013-05-26 09:15:00
4:35 AM,51.8,46.4,82,30.12,7.0,ESE,13.8,-,0.11,Rain,Light Rain,120,2013-05-26 09:35:00
4:55 AM,51.8,46.4,82,30.16,5.0,NE,6.9,-,0.15,Rain,Rain,40,2013-05-26 09:55:00
5:15 AM,50.0,46.4,87,30.11,4.0,ESE,18.4,-,0.06,Rain,Heavy Rain,120,2013-05-26 10:15:00
5:35 AM,50.0,46.4,87,30.11,5.0,ESE,17.3,21.9,0.12,Rain,Rain,110,2013-05-26 10:35:00
5:55 AM,50.0,46.4,87,30.13,7.0,ESE,11.5,-,0.13,Rain,Light Rain,120,2013-05-26 10:55:00
6:15 AM,50.0,46.4,87,30.14,1.5,SE,13.8,20.7,0.21,Rain,Heavy Rain,130,2013-05-26 11:15:00
6:35 AM,50.0,46.4,87,30.17,4.0,East,9.2,-,0.29,Rain,Light Rain,90,2013-05-26 11:35:00
6:55 AM,50.0,46.4,87,30.18,3.0,ESE,8.1,-,0.34,Rain,Rain,120,2013-05-26 11:55:00
7:15 AM,50.0,46.4,87,30.16,2.0,East,13.8,20.7,0.09,Rain,Heavy Rain,100,2013-05-26 12:15:00
7:35 AM,50.0,46.4,87,30.14,2.5,East,15.0,21.9,0.16,Rain,Rain,100,2013-05-26 12:35:00
7:55 AM,50.0,46.4,87,30.13,3.0,ESE,17.3,21.9,0.22,Rain,Rain,110,2013-05-26 12:55:00
8:15 AM,50.0,46.4,87,30.13,2.5,ESE,21.9,25.3,0.06,Rain,Heavy Rain,110,2013-05-26 13:15:00
8:35 AM,50.0,46.4,87,30.14,3.0,ESE,16.1,-,0.13,Rain,Rain,120,2013-05-26 13:35:00
8:55 AM,50.0,46.4,87,30.12,3.0,ESE,20.7,26.5,0.19,Rain,Heavy Rain,120,2013-05-26 13:55:00
9:15 AM,50.0,46.4,87,30.09,4.0,SE,24.2,29.9,0.04,Rain,Rain,130,2013-05-26 14:15:00
9:35 AM,50.0,46.4,87,30.09,5.0,ESE,19.6,36.8,0.05,Rain,Light Rain,120,2013-05-26 14:35:00
9:55 AM,50.0,46.4,87,30.06,7.0,SE,24.2,32.2,0.06,Rain,Light Rain,130,2013-05-26 14:55:00
10:15 AM,50.0,46.4,87,30.06,7.0,ESE,19.6,31.1,N/A,,Overcast,120,2013-05-26 15:15:00
10:35 AM,50.0,46.4,87,30.09,7.0,ESE,19.6,27.6,N/A,,Overcast,110,2013-05-26 15:35:00
10:55 AM,50.0,46.4,87,30.06,7.0,East,23.0,27.6,N/A,,Overcast,100,2013-05-26 15:55:00
11:15 AM,50.0,46.4,87,30.05,5.0,East,17.3,27.6,N/A,,Overcast,100,2013-05-26 16:15:00
11:35 AM,51.8,46.4,82,30.06,5.0,East,18.4,24.2,N/A,,Overcast,100,2013-05-26 16:35:00
11:55 AM,51.8,46.4,82,30.13,5.0,SE,8.1,17.3,N/A,,Overcast,130,2013-05-26 16:55:00
11:57 AM,53.6,48.2,82,30.13,5.0,SSE,9.2,17.3,N/A,,Overcast,150,2013-05-26 16:57:00
12:15 PM,51.8,48.2,88,30.14,5.0,SE,9.2,-,N/A,,Overcast,130,2013-05-26 17:15:00
12:35 PM,51.8,48.2,88,30.14,5.0,ESE,5.8,-,N/A,,Overcast,110,2013-05-26 17:35:00
12:55 PM,53.6,48.2,82,30.12,5.0,ESE,9.2,-,N/A,,Haze,110,2013-05-26 17:55:00
1:15 PM,53.6,50.0,88,30.12,5.0,East,6.9,-,N/A,,Overcast,100,2013-05-26 18:15:00
1:35 PM,53.6,50.0,88,30.12,7.0,East,9.2,-,N/A,,Overcast,100,2013-05-26 18:35:00
1:55 PM,53.6,50.0,88,30.11,5.0,East,10.4,-,N/A,,Overcast,80,2013-05-26 18:55:00
2:15 PM,53.6,50.0,88,30.11,5.0,East,10.4,-,N/A,,Overcast,90,2013-05-26 19:15:00
2:35 PM,53.6,50.0,88,30.11,5.0,East,11.5,-,N/A,,Overcast,100,2013-05-26 19:35:00
2:55 PM,55.4,50.0,82,30.09,5.0,East,15.0,-,N/A,,Haze,100,2013-05-26 19:55:00
3:15 PM,53.6,50.0,88,30.06,5.0,East,16.1,21.9,N/A,,Overcast,90,2013-05-26 20:15:00
3:35 PM,53.6,50.0,88,30.03,5.0,East,18.4,24.2,N/A,,Overcast,100,2013-05-26 20:35:00
3:55 PM,53.6,50.0,88,30.01,5.0,East,21.9,27.6,N/A,,Overcast,90,2013-05-26 20:55:00
4:15 PM,55.4,51.8,88,30.01,7.0,East,20.7,29.9,N/A,,Overcast,100,2013-05-26 21:15:00
4:35 PM,55.4,51.8,88,29.99,7.0,East,18.4,28.8,N/A,,Overcast,100,2013-05-26 21:35:00
4:55 PM,55.4,51.8,88,30.02,7.0,ESE,13.8,25.3,N/A,,Overcast,110,2013-05-26 21:55:00
5:15 PM,55.4,51.8,88,30.04,7.0,ESE,15.0,24.2,N/A,,Overcast,110,2013-05-26 22:15:00
5:35 PM,55.4,51.8,88,30.05,7.0,East,16.1,24.2,N/A,,Overcast,100,2013-05-26 22:35:00
5:55 PM,55.4,50.0,82,30.05,10.0,East,12.7,18.4,N/A,,Overcast,100,2013-05-26 22:55:00
6:15 PM,55.4,50.0,82,30.05,10.0,East,15.0,18.4,N/A,,Overcast,100,2013-05-26 23:15:00
6:35 PM,55.4,50.0,82,30.06,10.0,ESE,15.0,19.6,N/A,,Overcast,110,2013-05-26 23:35:00
6:55 PM,55.4,50.0,82,30.06,10.0,East,13.8,19.6,N/A,,Overcast,100,2013-05-26 23:55:00
7:15 PM,55.4,50.0,82,30.06,10.0,ESE,9.2,-,N/A,,Overcast,120,2013-05-27 00:15:00
7:35 PM,55.4,50.0,82,30.07,10.0,ESE,11.5,-,N/A,,Overcast,120,2013-05-27 00:35:00
7:55 PM,55.4,51.8,88,30.05,4.0,East,11.5,-,N/A,Rain,Rain,100,2013-05-27 00:55:00
8:15 PM,55.4,51.8,88,30.05,2.5,ESE,10.4,16.1,N/A,,Light Drizzle,110,2013-05-27 01:15:00
8:35 PM,55.4,51.8,88,30.04,4.0,East,9.2,-,N/A,,Overcast,100,2013-05-27 01:35:00
8:55 PM,55.4,51.8,88,30.04,7.0,East,13.8,17.3,N/A,,Overcast,100,2013-05-27 01:55:00
9:15 PM,55.4,51.8,88,30.03,7.0,East,15.0,19.6,N/A,,Overcast,100,2013-05-27 02:15:00
9:35 PM,55.4,51.8,88,30.04,7.0,East,11.5,-,N/A,,Overcast,100,2013-05-27 02:35:00
9:55 PM,55.4,51.8,88,30.04,7.0,ESE,10.4,-,N/A,,Overcast,110,2013-05-27 02:55:00
10:15 PM,55.4,51.8,88,30.03,7.0,East,13.8,18.4,N/A,,Overcast,100,2013-05-27 03:15:00
10:35 PM,55.4,51.8,88,30.04,5.0,East,13.8,18.4,N/A,,Overcast,90,2013-05-27 03:35:00
10:55 PM,55.4,51.8,88,30.04,5.0,East,11.5,17.3,N/A,,Overcast,90,2013-05-27 03:55:00
11:15 PM,55.4,51.8,88,30.05,5.0,East,6.9,-,N/A,,Overcast,100,2013-05-27 04:15:00
11:35 PM,55.4,51.8,88,30.03,5.0,ESE,9.2,-,N/A,,Overcast,110,2013-05-27 04:35:00
11:55 PM,55.4,51.8,88,30.01,4.0,SE,16.1,19.6,N/A,,Overcast,130,2013-05-27 04:55:00